Location: Anna District 4 Election Precinct
(37.4833°N, 89.2195°W)
Time: 15:12:56
(UTC+00:00)

OAO 2 Rocket - Pass Details

Date: 29 October 2020
Orbit: 676 x 746 km, 35.0° (Epoch: 03 December)

Event Time Altitude Azimuth Distance (km) Brightness Sun altitude
Rises 23:34:56 0° 257° (WSW) 3,077 9.3 -7.3°
Reaches altitude 10° 23:37:22 10° 254° (WSW) 2,149 7.6 -7.8°
Maximum altitude 23:42:20 63° 174° (S) 764 3.5 -8.7°
Enters shadow 23:46:56 12° 94° (E) 2,010 5.0 -9.6°
